Regional Weather Roundup
Issued by NWS Cleveland, OH

Home | Current Version | Previous Version | Text Only | Print | Product List | Glossary Off
Versions: 1 2 3 4 5 6 7 8 9 10 11 12 13 14 15 16 17 18 19 20 21 22 23 24 25 26 27 28 29 30 31 32 33 34 35 36 37 38 39 40 41 42 43 44 45 46 47 48 49 50

000
ASUS41 KCLE 292310
RWRCLE
OHIO REGIONAL WEATHER ROUNDUP
NATIONAL WEATHER SERVICE WILMINGTON, OH
700 PM EDT FRI AUG 29 2014

NOTE: "FAIR" INDICATES FEW OR NO CLOUDS BELOW 12,000 FEET WITH NO
SIGNIFICANT WEATHER AND/OR OBSTRUCTIONS TO VISIBILITY.

OHZ001>008-015>018-024>027-034-035-043-044-300000-
   NORTHWEST OHIO

CITY           SKY/WX    TMP DP  RH WIND       PRES   REMARKS
DEFIANCE       MOSUNNY   82  66  58 SE5       30.01F
FINDLAY        MOSUNNY   81  64  56 SE7       30.03S
TOLEDO EXPRESS SUNNY     80  63  55 VRB5      30.02F
TOLEDO METCALF MOSUNNY   82  59  45 SE10      30.03F
LIMA           SUNNY     82  66  58 SE6       30.03F
$$

OHZ009>014-019>023-028>033-038-089-300000-
   NORTHEAST OHIO

CITY           SKY/WX    TMP DP  RH WIND       PRES   REMARKS
CLE-HOPKINS    SUNNY     77  54  44 S7        30.08F
CLE-LAKEFRONT  SUNNY     73  63  70 NE10      30.06F
CUY CO. ARPT   MOSUNNY   79  55  44 SE12      30.09S
LORAIN-ELYRIA  SUNNY     80  56  43 SE5       30.07F
ASHTABULA      MOSUNNY   74  56  53 S5        30.11S
AKRON-CANTON   MOSUNNY   78  50  37 SE7       30.09S
WOOSTER        SUNNY     76  58  53 SE5       30.09F
MANSFIELD      SUNNY     77  61  57 SE7       30.08F
YOUNGSTOWN     PTSUNNY   75  54  47 SE3       30.11S
$$

OHZ042-051>053-060>062-070>072-077>081-300000-
  SOUTHWEST OHIO

CITY           SKY/WX    TMP DP  RH WIND       PRES   REMARKS
CINC-COVINGTON MOSUNNY   87  70  56 S7        30.00  HX  92
CINC-LUNKEN    MOSUNNY   85  69  58 VRB6      29.98F
HAMILTON       MOSUNNY   85  70  60 E7        29.99F
DAYTON         MOSUNNY   84  65  52 SE10      30.03F
WRIGHT-PAT AFB SUNNY     84  65  52 E10       30.02F
DAYTON GENERAL SUNNY     83  66  56 E9        30.01F
WILMINGTON     SUNNY     82  66  58 SE6       30.03F
$$

OHZ036-037-039>041-045>050-054>059-063>069-073>076-082>088-300000-
  CENTRAL AND SOUTHEAST OHIO

CITY           SKY/WX    TMP DP  RH WIND       PRES   REMARKS
COLUMBUS       MOSUNNY   84  60  44 E9        30.04S
OSU AIRPORT    SUNNY     83  60  45 SE8       30.04S
BOLTON FIELD   SUNNY     81  66  61 E5        30.04F
RICKENBACK AFB SUNNY     85  56  36 E7        30.03F
NEWARK         SUNNY     80  61  52 E5        30.06S
MARION         SUNNY     80  60  50 S7        30.06S
LANCASTER      SUNNY     82  63  52 E5        30.05F
ZANESVILLE     SUNNY     81  60  48 E5        30.08R
NEW PHILLY     SUNNY     76  60  57 E5        30.09F
$$


USA.gov is the U.S. government's official web portal to all federal, state and local government web resources and services.